, AZ

(GMT )
Payson

Weather History for KPAN - October, 2012

Change the Weather History Date:

Saturday, October 6, 2012

  Actual Average Record
Temperature  
Mean Temperature 63 °F -  
Max Temperature 75 °F 79 °F 78 °F (2014)
Min Temperature 51 °F 43 °F 42 °F (2011)
Degree Days  
Heating Degree Days 2    
Growing Degree Days 13 (Base 50)    
Moisture  
Dew Point 31 °F    
Average Humidity 32    
Maximum Humidity 44    
Minimum Humidity 20    
Precipitation  
Precipitation 0.00 in - - ()
Sea Level Pressure  
Sea Level Pressure 30.10 in    
Wind  
Wind Speed 3 mph (West)    
Max Wind Speed 13 mph    
Max Gust Speed 20 mph    
Visibility 10 miles    
Events      
Averages and records for this station are not official NWS values.
T = Trace of Precipitation, MM = Missing Value Source: NWS Daily Summary

Daily Weather History Graph

Daily Weather History Graph

Search for Another Location

Airport or City:

Trip Planner

Search our weather history database for the weather conditions in past years. The results will help you decide how hot, cold, wet, or windy it might be!

Date:

Astronomy

Oct. 06, 2012 Rise Set
Actual Time 6:24 AM MST 6:01 PM MST
Civil Twilight 5:58 AM MST 6:27 PM MST
Nautical Twilight 5:29 AM MST 6:56 PM MST
Astronomical Twilight 5:00 AM MST 7:25 PM MST
Moon 10:32 PM MST (10/6) 12:09 PM MST (10/6)
Length of Visible Light 12h 28m
Length of Day
11h 37m
Waning Gibbous, 64% of the Moon is Illuminated
Oct 6
Waning Gibbous
Oct 8
Last Quarter
Oct 15
New
Oct 21
First Quarter
Oct 29
Full

Hourly Weather History & Observations

Time (MST) Temp. Dew Point Humidity Pressure Visibility Wind Dir Wind Speed Gust Speed Precip Events Conditions
12:15 AM 55.4 °F 28.4 °F 36% 30.14 in 10.0 mi Calm Calm - N/A   Clear
12:35 AM 59.0 °F 28.4 °F 31% 30.14 in 10.0 mi Calm Calm - N/A   Clear
12:55 AM 59.0 °F 28.4 °F 31% 30.14 in 10.0 mi Calm Calm - N/A   Clear
1:15 AM 55.4 °F 28.4 °F 36% 30.14 in 10.0 mi Calm Calm - N/A   Clear
1:35 AM 55.4 °F 28.4 °F 36% 30.15 in 10.0 mi Calm Calm - N/A   Clear
1:55 AM 55.4 °F 28.4 °F 36% 30.15 in 10.0 mi Calm Calm - N/A   Clear
2:15 AM 55.4 °F 28.4 °F 36% 30.14 in 10.0 mi Calm Calm - N/A   Clear
2:35 AM 55.4 °F 28.4 °F 36% 30.14 in 10.0 mi Calm Calm - N/A   Clear
2:55 AM 55.4 °F 28.4 °F 36% 30.13 in 10.0 mi Calm Calm - N/A   Clear
3:15 AM 55.4 °F 28.4 °F 36% 30.12 in 10.0 mi Calm Calm - N/A   Clear
3:35 AM 53.6 °F 28.4 °F 38% 30.13 in 10.0 mi Calm Calm - N/A   Clear
3:55 AM 53.6 °F 28.4 °F 38% 30.12 in 10.0 mi Calm Calm - N/A   Clear
4:15 AM 55.4 °F 28.4 °F 36% 30.12 in 10.0 mi Calm Calm - N/A   Clear
4:35 AM 55.4 °F 28.4 °F 36% 30.12 in 10.0 mi Calm Calm - N/A   Clear
4:55 AM 53.6 °F 28.4 °F 38% 30.12 in 10.0 mi WNW 3.5 mph - N/A   Clear
5:15 AM 51.8 °F 30.2 °F 44% 30.13 in 10.0 mi Calm Calm - N/A   Clear
5:35 AM 53.6 °F 28.4 °F 38% 30.12 in 10.0 mi NNE 4.6 mph - N/A   Clear
5:55 AM 53.6 °F 28.4 °F 38% 30.13 in 10.0 mi WNW 3.5 mph - N/A   Clear
6:15 AM 51.8 °F 30.2 °F 44% 30.13 in 10.0 mi WNW 3.5 mph - N/A   Clear
6:35 AM 53.6 °F 30.2 °F 41% 30.14 in 10.0 mi WNW 3.5 mph - N/A   Clear
6:55 AM 53.6 °F 30.2 °F 41% 30.14 in 10.0 mi Calm Calm - N/A   Clear
7:15 AM 55.4 °F 30.2 °F 38% 30.14 in 10.0 mi Calm Calm - N/A   Clear
7:35 AM 55.4 °F 32.0 °F 41% 30.14 in 10.0 mi Calm Calm - N/A   Partly Cloudy
7:55 AM 55.4 °F 32.0 °F 41% 30.14 in 10.0 mi Calm Calm - N/A   Partly Cloudy
8:15 AM 57.2 °F 32.0 °F 38% 30.15 in 10.0 mi Calm Calm - N/A   Partly Cloudy
8:35 AM 60.8 °F 32.0 °F 34% 30.15 in 10.0 mi Calm Calm - N/A   Scattered Clouds
8:55 AM 64.4 °F 30.2 °F 28% 30.15 in 10.0 mi Calm Calm - N/A   Partly Cloudy
9:15 AM 66.2 °F 32.0 °F 28% 30.15 in 8.0 mi Calm Calm - N/A   Partly Cloudy
9:35 AM 68.0 °F 35.6 °F 30% 30.15 in 10.0 mi Calm Calm - N/A   Partly Cloudy
9:55 AM 69.8 °F 33.8 °F 27% 30.15 in 10.0 mi Calm Calm - N/A   Scattered Clouds
10:15 AM 71.6 °F 35.6 °F 27% 30.14 in 10.0 mi WNW 9.2 mph - N/A   Scattered Clouds
10:35 AM 71.6 °F 35.6 °F 27% 30.14 in 10.0 mi WSW 5.8 mph - N/A   Scattered Clouds
10:55 AM 71.6 °F 35.6 °F 27% 30.13 in 9.0 mi WNW 8.1 mph - N/A   Scattered Clouds
11:15 AM 73.4 °F 33.8 °F 23% 30.13 in 10.0 mi West 8.1 mph - N/A   Partly Cloudy
11:35 AM 73.4 °F 33.8 °F 23% 30.12 in 10.0 mi WNW 8.1 mph - N/A   Scattered Clouds
11:55 AM 73.4 °F 32.0 °F 22% 30.11 in 10.0 mi SW 9.2 mph - N/A   Scattered Clouds
12:15 PM 73.4 °F 32.0 °F 22% 30.11 in 10.0 mi West 3.5 mph - N/A   Scattered Clouds
12:35 PM 73.4 °F 32.0 °F 22% 30.10 in 10.0 mi SW 3.5 mph - N/A   Scattered Clouds
12:55 PM 73.4 °F 32.0 °F 22% 30.09 in 10.0 mi West 10.4 mph - N/A   Scattered Clouds
1:15 PM 73.4 °F 32.0 °F 22% 30.09 in 10.0 mi West 12.7 mph 19.6 mph N/A   Mostly Cloudy
1:35 PM 73.4 °F 32.0 °F 22% 30.08 in 10.0 mi West 8.1 mph 18.4 mph N/A   Scattered Clouds
1:55 PM 75.2 °F 32.0 °F 21% 30.07 in 10.0 mi West 9.2 mph 17.3 mph N/A   Partly Cloudy
2:15 PM 75.2 °F 32.0 °F 21% 30.07 in 10.0 mi West 11.5 mph 17.3 mph N/A   Partly Cloudy
2:35 PM 75.2 °F 32.0 °F 21% 30.07 in 10.0 mi West 8.1 mph - N/A   Scattered Clouds
2:55 PM 73.4 °F 32.0 °F 22% 30.06 in 10.0 mi West 9.2 mph - N/A   Partly Cloudy
3:15 PM 73.4 °F 30.2 °F 20% 30.06 in 10.0 mi West 10.4 mph - N/A   Scattered Clouds
3:35 PM 73.4 °F 32.0 °F 22% 30.05 in 10.0 mi West 10.4 mph - N/A   Scattered Clouds
4:15 PM 73.4 °F 32.0 °F 22% 30.05 in 10.0 mi West 10.4 mph - N/A   Clear
4:35 PM 71.6 °F 32.0 °F 23% 30.05 in 10.0 mi West 11.5 mph - N/A   Partly Cloudy
4:55 PM 71.6 °F 33.8 °F 25% 30.05 in 10.0 mi WSW 9.2 mph - N/A   Clear
5:15 PM 69.8 °F 33.8 °F 27% 30.05 in 10.0 mi West 10.4 mph - N/A   Clear
5:35 PM 69.8 °F 33.8 °F 27% 30.06 in 9.0 mi West 8.1 mph - N/A   Clear
5:55 PM 69.8 °F 32.0 °F 25% 30.05 in 10.0 mi West 8.1 mph - N/A   Clear
6:15 PM 68.0 °F 32.0 °F 26% 30.06 in 10.0 mi West 6.9 mph - N/A   Clear
6:35 PM 66.2 °F 32.0 °F 28% 30.06 in 10.0 mi West 4.6 mph - N/A   Clear
6:55 PM 64.4 °F 32.0 °F 30% 30.06 in 10.0 mi West 5.8 mph - N/A   Clear
7:15 PM 62.6 °F 32.0 °F 32% 30.07 in 10.0 mi WNW 5.8 mph - N/A   Clear
7:35 PM 62.6 °F 32.0 °F 32% 30.07 in 10.0 mi South 3.5 mph - N/A   Clear
7:55 PM 62.6 °F 32.0 °F 32% 30.08 in 10.0 mi Calm Calm - N/A   Clear
8:15 PM 62.6 °F 32.0 °F 32% 30.08 in 10.0 mi Calm Calm - N/A   Clear
8:35 PM 62.6 °F 32.0 °F 32% 30.08 in 10.0 mi Calm Calm - N/A   Clear
8:55 PM 60.8 °F 32.0 °F 34% 30.08 in 10.0 mi Calm Calm - N/A   Clear
9:15 PM 62.6 °F 32.0 °F 32% 30.08 in 10.0 mi Calm Calm - N/A   Clear
9:35 PM 59.0 °F 32.0 °F 36% 30.08 in 10.0 mi North 3.5 mph - N/A   Clear
9:55 PM 57.2 °F 32.0 °F 38% 30.08 in 10.0 mi NW 3.5 mph - N/A   Clear
10:15 PM 57.2 °F 32.0 °F 38% 30.08 in 10.0 mi North 3.5 mph - N/A   Clear
10:35 PM 57.2 °F 32.0 °F 38% 30.08 in 10.0 mi Calm Calm - N/A   Clear
10:55 PM 55.4 °F 32.0 °F 41% 30.08 in 10.0 mi NW 3.5 mph - N/A   Clear
11:15 PM 55.4 °F 32.0 °F 41% 30.08 in 10.0 mi NW 3.5 mph - N/A   Clear
11:35 PM 55.4 °F 32.0 °F 41% 30.08 in 10.0 mi NW 3.5 mph - N/A   Clear
11:55 PM 55.4 °F 32.0 °F 41% 30.07 in 10.0 mi WNW 3.5 mph - N/A   Clear